User: anonymous   Login
Location: Aalen
(48.8330°N, 10.1000°E)
Time: 14:27:52
(UTC+02:00)
Language:

UNISAT 6 - Orbit

View from above orbital plane
View from above orbital plane
View from above satellite
View from above satellite

Ground track
Ground track

The orbit data is extracted from the following two-line orbital elements,

1 40012U 14033C   23091.55051702  .00003930  00000-0  56019-3 0  9997
2 40012  97.6684 269.4179 0054942 305.7158  53.8947 14.76285206472460
Epoch (UTC): 01 April 2023 13:12:44
Eccentricity: 0.0054942
inclination: 97.6684°
perigee height: 602 km
apogee height: 679 km
right ascension of ascending node: 269.4179°
argument of perigee: 305.7158°
revolutions per day: 14.76285206
mean anomaly at epoch: 53.8947°
orbit number at epoch: 47246

The dashed part of the orbit path shows where the satellite is in the earth's shadow,  

DLR